This is the latest recevied weather packets stored in our database for station/object KD8UTJ. If no packets are shown the sender has not sent any weather packets the latest 1 day(s).
| Time | Temp. | Humidity | Pressure | Rain* | Wind** | Luminosity | Snow |
|---|---|---|---|---|---|---|---|
| 1777983203 | 24.44° C | 73% | 1018.3 hPa | 0 mm | 1.34 m/s, 93° | 165 W/m² | - |
| 1777982899 | 23.89° C | 73% | 1018.4 hPa | 0 mm | 1.79 m/s, 110° | 154 W/m² | - |
| 1777982595 | 23.89° C | 74% | 1018.5 hPa | 0 mm | 2.24 m/s, 112° | 143 W/m² | - |
| 1777982294 | 23.89° C | 74% | 1018.5 hPa | 0 mm | 1.79 m/s, 81° | 124 W/m² | - |
| 1777981991 | 23.89° C | 75% | 1018 hPa | 0 mm | 0.45 m/s, 126° | 105 W/m² | - |
| 1777981689 | 23.89° C | 75% | 1018.3 hPa | 0 mm | 0.45 m/s, 89° | 96 W/m² | - |
| 1777981385 | 23.89° C | 75% | 1017.9 hPa | 0 mm | 0 m/s | 82 W/m² | - |
| 1777981082 | 23.33° C | 76% | 1017.9 hPa | 0 mm | 1.34 m/s, 60° | 73 W/m² | - |
| 1777980778 | 23.33° C | 77% | 1017.9 hPa | 0 mm | 0.45 m/s, 112° | 63 W/m² | - |
| 1777980474 | 23.33° C | 78% | 1017.9 hPa | 0 mm | 0.89 m/s, 118° | 53 W/m² | - |
| 1777980172 | 22.78° C | 80% | 1017.7 hPa | 0 mm | 0.45 m/s, 61° | 44 W/m² | - |
| 1777979872 | 22.22° C | 81% | 1017.7 hPa | 0 mm | 0.89 m/s, 89° | 37 W/m² | - |
| 1777979568 | 22.22° C | 81% | 1017.6 hPa | 0 mm | 0.89 m/s, 59° | 29 W/m² | - |
| 1777979264 | 22.22° C | 82% | 1017.4 hPa | 0 mm | 0.45 m/s, 62° | 24 W/m² | - |
| 1777978962 | 21.67° C | 83% | 1017.3 hPa | 0 mm | 0.45 m/s, 128° | 19 W/m² | - |
| 1777978658 | 21.67° C | 83% | 1017.4 hPa | 0 mm | 0 m/s | 15 W/m² | - |
| 1777978354 | 21.67° C | 84% | 1017.3 hPa | 0 mm | 0.45 m/s, 88° | 11 W/m² | - |
| 1777978051 | 21.67° C | 84% | 1017.2 hPa | 0 mm | 0.45 m/s, 71° | 7 W/m² | - |
| 1777977748 | 21.11° C | 84% | 1017.5 hPa | 0 mm | 0.45 m/s, 64° | 4 W/m² | - |
| 1777977444 | 21.11° C | 85% | 1017.3 hPa | 0 mm | 0.89 m/s, 63° | 2 W/m² | - |
| 1777977142 | 21.11° C | 85% | 1017.1 hPa | 0 mm | 0 m/s | 1 W/m² | - |
| 1777976839 | 21.11° C | 86% | 1017.3 hPa | 0 mm | 0.45 m/s, 123° | 0 W/m² | - |
| 1777976538 | 21.11° C | 86% | 1017.2 hPa | 0 mm | 0 m/s | 0 W/m² | - |
| 1777976236 | 21.11° C | 86% | 1016.8 hPa | 0 mm | 0.45 m/s, 131° | 0 W/m² | - |
| 1777975932 | 20.56° C | 86% | 1017.1 hPa | 0 mm | 0.45 m/s, 37° | 0 W/m² | - |
* Rain latest hour (hover to see other rain measurements)
** Current wind speed in m/s (hover to see current wind gust speed)